Flag for U.S.A. Weather past 2 weeks in Fairbanks, Alaska, U.S.A.

Now
5 °F

Passing clouds.


Feels Like: 5 °F
Forecast: -2 / 20 °F
Wind: No wind

Location: Wainwright U. S. Army Airfield

Current Time: Mar 2, 2015 at 12:02:42 PM

Latest Report: Mar 2, 2015 at 10:55 AM


Visibility: 85 mi

Pressure: 30.25 "Hg

Humidity: 72%

Dew point: -2 °F

Location of FairbanksLocation

Historic Weather in Fairbanks — Graph

°F

Fairbanks temperature yesterday

Maximum temperature yesterday: 22 °F (at 12:56 AM)
Minimum temperature yesterday: -1 °F (at 6:56 AM)
Average temperature yesterday: 13 °F

Past Weeks' High & Low Weather Summary

 TemperatureHumidityPressure
High36 °F (Feb 22, 2:56 PM)100% (Feb 23, 7:55 AM)30.72 "Hg (Feb 23, 7:55 AM)
Low-9 °F (Mar 2, 6:55 AM)52% (Mar 1, 3:56 PM)29.54 "Hg (Feb 16, 9:56 PM)
Average18 °F83%30.17 "Hg
* Reported Feb 15 10:56 AM — Mar 2 10:55 AM, Fairbanks, Weather by CustomWeather, © 2015

Note: Actual official high and low records may vary slightly from our data, if they occured in-between our weather recording intervals... More about our weather records

Advertising

Fairbanks weather history for previous 24 hours

 ConditionsComfort  
Time TempWeatherWind HumidityBarometerVisibility
10:55 AM
Mon, Mar 2
5 °FPassing clouds.No wind72%30.25 "Hg85 mi
9:55 AM-2 °FPassing clouds.No wind77%30.27 "Hg85 mi
8:55 AM-9 °FPassing clouds.No wind84%30.29 "Hg25 mi
7:55 AM-9 °FPassing clouds.No wind84%30.30 "Hg13 mi
6:55 AM-9 °FPassing clouds.2 mph84%30.32 "Hg13 mi
5:56 AM-5 °FClear.N/AN/A30.33 "Hg10 mi
4:56 AM-7 °FClear.N/AN/A30.37 "Hg10 mi
3:56 AM5 °FClear.N/A72%30.37 "Hg10 mi
2:56 AM8 °FClear.N/A69%30.41 "Hg10 mi
1:56 AM8 °FClear.N/A69%30.44 "Hg10 mi
12:56 AM8 °FClear.N/A69%30.46 "Hg10 mi
11:56 PM
Sun, Mar 1
10 °FClear.N/A69%30.48 "Hg10 mi
10:56 PM9 °FClear.N/A73%30.52 "Hg10 mi
9:56 PM9 °FClear.N/A73%30.53 "Hg10 mi
8:56 PM12 °FClear.N/A70%30.56 "Hg10 mi
7:56 PM11 °FClear.N/A70%30.58 "Hg10 mi
6:56 PM15 °FClear.N/A67%30.60 "Hg10 mi
5:56 PM19 °FSunny.N/A57%30.61 "Hg10 mi
4:56 PM19 °FSunny.N/A57%30.63 "Hg10 mi
3:56 PM21 °FSunny.N/A52%30.66 "Hg10 mi
2:56 PM15 °FSunny.N/A70%30.66 "Hg10 mi
1:56 PM18 °FSunny.N/A62%30.68 "Hg10 mi
12:56 PM16 °FSunny.N/A67%30.70 "Hg10 mi
Weather by CustomWeather, © 2015

See weather overviewHow to use our weather pages